Location: Hac?musa Deresi
(39.1694°N, 32.2508°E)
Time: 01:01:40
(UTC+00:00)

Cosmos 2333 Rocket - Pass Details

Date: 22 April 2026
Orbit: 842 x 860 km, 70.8° (Epoch: 9 May)

Event Time Altitude Azimuth Distance (km) Brightness Sun altitude
Rises 22:53:39 0° 346° (NNW) 3,410 6.1 -36.3°
Reaches altitude 10° 22:56:28 10° 359° (N) 2,473 5.3 -36.1°
Maximum altitude 23:01:16 27° 57° (ENE) 1,560 3.9 -35.7°
Enters shadow 23:02:07 26° 71° (ENE) 1,596 3.9 -35.7°
